Hurghada, Egypt

4:38 AM EET on February 24, 2018 (GMT +0200)
Hurghada

Weather History for HEGN - August, 2013

Change the Weather History Date:

Friday, August 23, 2013

  Actual Average Record
Temperature  
Mean Temperature 90 °F -  
Max Temperature 101 °F 92 °F 104 °F (2006)
Min Temperature 79 °F 78 °F 78 °F (2004)
Cooling Degree Days 25    
Growing Degree Days 40 (Base 50)    
Moisture  
Dew Point 55 °F    
Average Humidity 29    
Maximum Humidity 43    
Minimum Humidity 13    
Precipitation  
Precipitation 0.00 in - - ()
Sea Level Pressure  
Sea Level Pressure 29.73 in    
Wind  
Wind Speed 14 mph ()    
Max Wind Speed 26 mph    
Max Gust Speed -    
Visibility 6.0 miles    
Events      
Averages and records for this station are not official NWS values.
T = Trace of Precipitation, MM = Missing Value Source: Averaged Metar Reports

Daily Weather History Graph

Daily Weather History Graph

Search for Another Location

Airport or City:

Trip Planner

Search our weather history database for the weather conditions in past years. The results will help you decide how hot, cold, wet, or windy it might be!

Date:

Astronomy

Aug. 23, 2013 Rise Set
Actual Time 5:20 AM EET 6:14 PM EET
Civil Twilight 4:56 AM EET 6:38 PM EET
Nautical Twilight 4:27 AM EET 7:07 PM EET
Astronomical Twilight 3:58 AM EET 7:36 PM EET
Moon 7:43 PM EET (8/23) 7:33 AM EET (8/23)
Length of Visible Light 13h 42m
Length of Day
12h 54m
Waning Gibbous, 93% of the Moon is Illuminated
Aug 23
Waning Gibbous
Aug 28
Last Quarter
Sep 5
New
Sep 12
First Quarter
Sep 19
Full

Hourly Weather History & Observations

Time (EET) Temp. Heat Index Dew Point Humidity Pressure Visibility Wind Dir Wind Speed Gust Speed Precip Events Conditions
12:00 AM 86.0 °F - 50.0 °F 29% 29.71 in - WNW 12.7 mph - N/A   Clear
1:00 AM 84.2 °F 82.8 °F 53.6 °F 35% 29.71 in - WNW 12.7 mph - N/A   Clear
2:00 AM 84.2 °F 83.0 °F 55.4 °F 37% 29.71 in - WNW 15.0 mph - N/A   Clear
3:00 AM 84.2 °F 83.0 °F 55.4 °F 37% 29.71 in - NW 16.1 mph - N/A   Clear
4:00 AM 84.2 °F 82.8 °F 53.6 °F 35% 29.71 in - NW 13.8 mph - N/A   Clear
5:00 AM 82.4 °F - 51.8 °F 35% 29.74 in - NNW 9.2 mph - N/A   Clear
6:00 AM 80.6 °F - 51.8 °F 37% 29.74 in - North 4.6 mph - N/A   Clear
7:00 AM 86.0 °F - 51.8 °F 31% 29.74 in - NNW 5.8 mph - N/A   Clear
8:00 AM 89 °F - 63 °F 32% 29.78 in 6 mi NNW 11.5 mph - -  
8:00 AM 87.8 °F 88.5 °F 62.6 °F 43% 29.77 in - NNW 11.5 mph - N/A   Clear
9:00 AM 93.2 °F 93.3 °F 60.8 °F 34% 29.77 in - North 21.9 mph - N/A   Clear
10:00 AM 96.8 °F 97.1 °F 60.8 °F 30% 29.74 in - North 23.0 mph - N/A   Clear
11:00 AM 98.6 °F 100.0 °F 62.6 °F 30% 29.74 in - North 25.3 mph - N/A   Clear
12:00 PM 96.8 °F 97.1 °F 60.8 °F 30% 29.74 in - North 26.5 mph - N/A   Clear
1:00 PM 100.4 °F 99.7 °F 57.2 °F 24% 29.71 in - North 23.0 mph - N/A   Clear
2:00 PM 101 °F - 55 °F 13% 29.72 in 6 mi NNE 19.6 mph - -  
2:00 PM 100.4 °F 98.8 °F 55.4 °F 22% 29.71 in - North 19.6 mph - N/A   Clear
3:00 PM 100.4 °F 98.8 °F 55.4 °F 22% 29.68 in - North 21.9 mph - N/A   Clear
4:00 PM 100.4 °F 98.8 °F 55.4 °F 22% 29.68 in - North 20.7 mph - N/A   Clear
5:00 PM 98.6 °F 97.2 °F 55.4 °F 24% 29.68 in - North 20.7 mph - N/A   Clear
6:00 PM 95.0 °F 95.2 °F 60.8 °F 32% 29.71 in - North 19.6 mph - N/A   Clear
7:00 PM 93.2 °F 92.6 °F 59.0 °F 32% 29.71 in - North 13.8 mph - N/A   Clear
8:00 PM 92 °F - 52 °F 16% 29.75 in 6 mi NNW 18.4 mph - -  
8:00 PM 93.2 °F - 51.8 °F 24% 29.74 in - NNW 18.4 mph - N/A   Clear
9:00 PM 89.6 °F - 42.8 °F 20% 29.77 in - WNW 10.4 mph - N/A   Clear
10:00 PM 87.8 °F - 50.0 °F 27% 29.77 in - WNW 18.4 mph - N/A   Clear
11:00 PM 87.8 °F - 51.8 °F 29% 29.77 in - WNW 18.4 mph - N/A   Clear